Location: D�derode
(51.8092°N, 10.1065°E)
Time: 06:22:54
(UTC+00:00)

Cosmos 1515 Rocket - Pass Details

Date: 01 December 2020
Orbit: 605 x 631 km, 82.5° (Epoch: 23 January)

Event Time Altitude Azimuth Distance (km) Brightness Sun altitude
Rises 17:15:14 0° 185° (S) 2,875 7.2 -18.0°
Reaches altitude 10° 17:17:26 10° 184° (S) 1,979 6.3 -18.4°
Maximum altitude 17:21:49 79° 99° (E) 639 3.4 -19.0°
Enters shadow 17:25:12 17° 14° (NNE) 1,584 5.4 -19.5°
